Weather History for Sheridan, WY

Change the Weather History Date:

Thursday, January 5, 2012

  Actual Average Record
Temperature  
Mean Temperature 48 °F 23 °F  
Max Temperature 67 °F 36 °F 67 °F (2012)
Min Temperature 29 °F 11 °F -32 °F (1913)
Degree Days  
Heating Degree Days 17 42  
Month to date heating degree days 148 210  
Since 1 July heating degree days 2985 3393  
Cooling Degree Days 0 0  
Month to date cooling degree days 0 0  
Year to date cooling degree days 0 0  
Moisture  
Dew Point 26 °F    
Average Humidity 48    
Maximum Humidity 78    
Minimum Humidity 18    
Precipitation  
Precipitation 0.00 in 0.01 in 0.28 in (1969)
Month to date precipitation 0.00 0.08  
Year to date precipitation 0.00 0.08  
Sea Level Pressure  
Sea Level Pressure 29.94 in    
Wind  
Wind Speed 7 mph (WNW)    
Max Wind Speed 23 mph    
Max Gust Speed 28 mph    
Visibility 10 miles    
Events      
T = Trace of Precipitation, MM = Missing Value Source: NWS Daily Summary

Daily Weather History Graph

Daily Weather History Graph

Search for Another Location

Airport:

Trip Planner

Search our weather history database for the weather conditions in past years. The results will help you decide how hot, cold, wet, or windy it might be!

Date:

Astronomy

Jan. 05, 2012 Rise Set
Actual Time 7:45 AM MST 4:41 PM MST
Civil Twilight 7:11 AM MST 5:14 PM MST
Nautical Twilight 6:35 AM MST 5:51 PM MST
Astronomical Twilight 5:59 AM MST 6:26 PM MST
Moon 1:46 PM MST (1/5) 4:33 AM MST (1/5)
Length of Visible Light 10h 02m
Length of Day
8h 56m
Waxing Gibbous, 88% of the Moon is Illuminated
Jan 5
Waxing Gibbous
Jan 9
Full
Jan 16
Last Quarter
Jan 23
New
Jan 30
First Quarter

Hourly Weather History & Observations

Time (MST) Temp. Windchill Dew Point Humidity Pressure Visibility Wind Dir Wind Speed Gust Speed Precip Events Conditions
12:53 AM 39.0 °F - 27.0 °F 62% 30.06 in 10.0 mi Calm Calm - N/A   Clear
1:53 AM 42.1 °F - 28.0 °F 58% 30.00 in 10.0 mi Calm Calm - N/A   Clear
2:53 AM 37.0 °F 32.4 °F 27.0 °F 67% 29.99 in 10.0 mi NNW 5.8 mph - N/A   Clear
3:53 AM 36.0 °F 32.1 °F 27.0 °F 70% 30.02 in 10.0 mi NNW 4.6 mph - N/A   Clear
4:53 AM 32.0 °F - 26.1 °F 79% 30.03 in 10.0 mi Calm Calm - N/A   Clear
5:53 AM 32.0 °F 28.7 °F 26.1 °F 79% 30.03 in 10.0 mi WSW 3.5 mph - N/A   Clear
6:53 AM 34.0 °F 29.8 °F 27.0 °F 75% 30.01 in 10.0 mi SSE 4.6 mph - N/A   Clear
7:53 AM 36.0 °F - 27.0 °F 70% 29.99 in 10.0 mi Calm Calm - N/A   Clear
8:53 AM 39.0 °F 36.8 °F 28.0 °F 65% 29.98 in 10.0 mi Variable 3.5 mph - N/A   Clear
9:53 AM 42.8 °F 38.0 °F 28.4 °F 57% 29.93 in 10.0 mi NE 8.1 mph - N/A   Clear
10:53 AM 44.1 °F 42.5 °F 32.0 °F 63% 29.96 in 10.0 mi Variable 3.5 mph - N/A   Clear
11:53 AM 46.9 °F - 36.0 °F 66% 29.91 in 10.0 mi Calm Calm - N/A   Clear
12:43 PM 62.6 °F - 23.0 °F 22% 29.84 in 10.0 mi West 16.1 mph - N/A   Clear
12:53 PM 64.9 °F - 23.0 °F 20% 29.81 in 10.0 mi West 15.0 mph - N/A   Clear
1:53 PM 66.9 °F - 21.9 °F 18% 29.75 in 10.0 mi West 10.4 mph - N/A   Clear
2:53 PM 62.1 °F - 21.9 °F 21% 29.78 in 10.0 mi WNW 17.3 mph - N/A   Clear
3:53 PM 57.0 °F - 21.0 °F 25% 29.79 in 10.0 mi West 13.8 mph - N/A   Clear
4:53 PM 53.1 °F - 21.0 °F 29% 29.82 in 10.0 mi West 13.8 mph - N/A   Clear
5:53 PM 45.0 °F 40.1 °F 21.9 °F 40% 29.87 in 10.0 mi NNW 9.2 mph - N/A   Clear
6:53 PM 45.0 °F 40.6 °F 23.0 °F 42% 29.88 in 10.0 mi NNW 8.1 mph - N/A   Clear
7:53 PM 43.0 °F 35.4 °F 25.0 °F 49% 29.94 in 10.0 mi North 16.1 mph - N/A   Partly Cloudy
8:53 PM 39.0 °F 32.8 °F 26.1 °F 60% 30.02 in 10.0 mi WNW 9.2 mph - N/A   Partly Cloudy
9:53 PM 39.0 °F 32.8 °F 26.1 °F 60% 30.02 in 10.0 mi WNW 9.2 mph - N/A   Overcast
10:53 PM 39.0 °F 31.4 °F 25.0 °F 57% 30.02 in 10.0 mi NW 12.7 mph - N/A   Overcast
11:53 PM 37.0 °F 30.4 °F 25.0 °F 62% 30.02 in 10.0 mi NW 9.2 mph - N/A   Overcast